sat.trackr.live / text

‹ back to catalog

STARLINK-3874

NORAD 52365 · 2022-045AL

PAYLOAD ACTIVE UNKNOWN

§ Identity

Operator
Country
US
Launch date
2022-04-29
Launch site
AFETR
Launch vehicle
Mass (kg)
RCS (m²)

Purposes: comms

External: N2YO · Heavens-Above · Gunter

§ Orbital elements

Epoch: 2026-05-24T21:39:55.680192Z

Period
95.44 min
Inclination
53.2138°
Eccentricity
0.0001016
Mean motion
15.08837593 rev/d
Perigee alt
539.0 km
Apogee alt
540.5 km
Semi-major
6,917.9 km
B*
2.8204e-6
RAAN
206.9871°
Arg perigee
86.2354°
Mean anomaly
273.8754°
Rev number
22,742

§ Raw data

STARLINK-38741 52365U 22045AL  26144.90272778 -.00000243  00000+0  28204-5 0  99932 52365  53.2138 206.9871 0001016  86.2354 273.8754 15.08837593227426

JSON: /api/v1/satellites/52365 · /tle

For live sub-satellite position, see the globe view (requires WebGL).

§ Visibility from observer

Set your observer location to see the next 7 days of passes ≥ 10°. The values pass through the URL so the page stays shareable.

No JS? Fill the form by hand. The geolocation button needs JavaScript.